This is the latest recevied weather packets stored in our database for station/object OK3FM-14. If no packets are shown the sender has not sent any weather packets the latest 10 day(s).
| Time | Temp. | Humidity | Pressure | Rain* | Wind** | Luminosity | Snow |
|---|---|---|---|---|---|---|---|
| 1787624232 | 12.22° C | 73% | 1017.3 hPa | - | - | - | - |
| 1787623632 | 12.22° C | 73% | 1017.6 hPa | - | - | - | - |
| 1787623032 | 12.78° C | 72% | 1017.6 hPa | - | - | - | - |
| 1787622432 | 12.78° C | 71% | 1017.9 hPa | - | - | - | - |
| 1787621832 | 12.78° C | 71% | 1018.1 hPa | - | - | - | - |
| 1787621232 | 12.78° C | 70% | 1018 hPa | - | - | - | - |
| 1787620632 | 13.33° C | 67% | 1018 hPa | - | - | - | - |
| 1787620032 | 13.33° C | 66% | 1018 hPa | - | - | - | - |
| 1787619432 | 13.33° C | 66% | 1017.9 hPa | - | - | - | - |
| 1787618832 | 13.33° C | 67% | 1018.2 hPa | - | - | - | - |
| 1787618232 | 13.33° C | 66% | 1018.5 hPa | - | - | - | - |
| 1787617632 | 13.33° C | 67% | 1018.5 hPa | - | - | - | - |
| 1787617032 | 13.33° C | 67% | 1018.7 hPa | - | - | - | - |
| 1787616432 | 13.33° C | 67% | 1018.6 hPa | - | - | - | - |
| 1787615832 | 13.33° C | 67% | 1018.8 hPa | - | - | - | - |
| 1787615232 | 13.33° C | 66% | 1019.1 hPa | - | - | - | - |
| 1787614032 | 12.78° C | 67% | 1019.5 hPa | - | - | - | - |
| 1787613432 | 12.78° C | 68% | 1019.5 hPa | - | - | - | - |
| 1787612833 | 12.78° C | 67% | 1019.8 hPa | - | - | - | - |
| 1787612232 | 12.78° C | 67% | 1019.9 hPa | - | - | - | - |
| 1787611633 | 12.78° C | 67% | 1020 hPa | - | - | - | - |
| 1787611032 | 12.78° C | 69% | 1020.1 hPa | - | - | - | - |
| 1787610432 | 12.78° C | 68% | 1020.3 hPa | - | - | - | - |
| 1787609837 | 12.78° C | 66% | 1020.4 hPa | - | - | - | - |
| 1787609231 | 13.33° C | 65% | 1020.6 hPa | - | - | - | - |
* Rain since midnight (hover to see other rain measurements)
** Current wind speed in m/s (hover to see current wind gust speed)